W7PJH Weather Reports


time (UTC)temp
C
wind
direction
speed
KPH
gust
KPH
rain 1hr
cm
rain 24hr
cm
rain mn
cm
humidity
%
barometer
mb
20260506013532 22 279 12.9 24.1 0.00 0.10 0.10 31 1012.1
20260506012526 22 290 9.7 24.1 0.00 0.10 0.10 29 1012.0
20260506011532 23 281 8.0 20.9 0.00 0.10 0.10 27 1011.9
20260506010524 23 278 16.1 32.2 0.00 0.10 0.10 27 1011.8
20260506005532 23 267 9.7 19.3 0.00 0.13 0.10 26 1011.7
20260506004524 23 262 9.7 20.9 0.00 0.15 0.10 27 1011.6
20260506003532 23 275 12.9 29.0 0.00 0.15 0.10 27 1011.5
20260506002604 24 254 9.7 20.9 0.00 0.15 0.10 27 1011.5
20260506001548 25 315 9.7 22.5 0.00 0.15 0.10 27 1011.5
20260506000700 24 255 4.8 6.4 0.00 0.15 0.10 28 1011.3
20260505235533 23 242 11.3 24.1 0.00 0.15 0.10 28 1011.3
20260505234545 23 281 9.7 20.9 0.00 0.15 0.10 28 1011.3
20260505233740 24 252 8.0 11.3 0.00 0.15 0.10 28 1011.2
20260505232526 24 247 12.9 22.5 0.00 0.15 0.10 26 1011.4
20260505231533 24 228 12.9 24.1 0.00 0.15 0.10 26 1011.3
20260505230545 24 218 12.9 32.2 0.00 0.15 0.10 26 1011.3
20260505225813 24 204 14.5 29.0 0.00 0.15 0.10 27 1011.4
20260505225013 24 229 9.7 16.1 0.00 0.15 0.10 28 1011.5
20260505223845 25 249 14.5 19.3 0.00 0.15 0.10 27 1011.5
20260505222636 24 273 11.3 29.0 0.00 0.15 0.10 27 1011.6
20260505221532 24 264 14.5 40.2 0.00 0.15 0.10 27 1011.7
20260505220525 25 264 12.9 24.1 0.00 0.15 0.10 28 1011.7
20260505215609 24 274 12.9 22.5 0.00 0.15 0.10 29 1011.9
20260505214524 24 285 16.1 29.0 0.00 0.15 0.10 30 1011.9
20260505213552 24 293 14.5 30.6 0.00 0.15 0.10 30 1012.0
20260505212526 24 278 16.1 30.6 0.00 0.15 0.10 31 1012.1
20260505211532 24 283 14.5 30.6 0.00 0.15 0.10 34 1012.1
20260505210612 22 289 16.1 33.8 0.00 0.15 0.10 35 1012.2
20260505205900 23 257 11.3 24.1 0.00 0.15 0.10 36 1012.3
20260505204524 23 282 11.3 24.1 0.00 0.15 0.10 37 1012.3
20260505203533 22 279 11.3 27.4 0.00 0.15 0.10 39 1012.3
20260505202524 22 280 12.9 32.2 0.00 0.15 0.10 39 1012.5
20260505201533 21 260 9.7 22.5 0.00 0.15 0.10 45 1012.6
20260505200524 21 13 8.0 11.3 0.00 0.15 0.10 50 1012.7
20260505195532 21 0 3.2 6.4 0.00 0.15 0.10 49 1012.9
20260505194605 21 299 6.4 11.3 0.00 0.15 0.10 50 1013.0
20260505193532 22 356 4.8 16.1 0.00 0.15 0.10 50 1012.8
20260505192524 22 17 6.4 17.7 0.00 0.15 0.10 50 1013.0
20260505191532 22 327 6.4 12.9 0.00 0.15 0.10 51 1013.1
20260505190524 21 345 4.8 9.7 0.00 0.15 0.10 50 1013.4
20260505185532 21 289 3.2 8.0 0.00 0.15 0.10 53 1013.6
20260505184525 20 295 4.8 11.3 0.00 0.15 0.10 57 1013.8
20260505183549 20 284 6.4 11.3 0.00 0.15 0.10 56 1013.7
20260505182524 21 270 6.4 11.3 0.00 0.15 0.10 54 1013.9
20260505181533 19 41 3.2 6.4 0.00 0.15 0.10 61 1014.0
20260505180525 19 87 1.6 3.2 0.00 0.15 0.10 60 1014.1
20260505175552 20 43 1.6 4.8 0.00 0.15 0.10 60 1014.2
20260505174524 20 27 1.6 4.8 0.00 0.15 0.10 63 1014.3
20260505173533 20 18 1.6 8.0 0.00 0.15 0.10 61 1014.2
20260505172526 19 28 1.6 4.8 0.00 0.15 0.10 62 1014.3
20260505171532 20 2 3.2 6.4 0.00 0.15 0.10 63 1014.3
20260505170524 19 51 1.6 8.0 0.00 0.15 0.10 63 1014.2
20260505165552 19 54 0.0 3.2 0.00 0.15 0.10 64 1014.2
20260505164524 18 135 1.6 3.2 0.00 0.15 0.10 65 1014.2
20260505163532 18 324 1.6 6.4 0.00 0.15 0.10 72 1014.3
20260505162545 18 240 1.6 4.8 0.00 0.15 0.10 71 1014.4
20260505161532 17 259 1.6 6.4 0.00 0.15 0.10 73 1014.4
20260505160524 17 233 1.6 3.2 0.00 0.15 0.10 72 1014.3
20260505152605 16 141 1.6 4.8 0.00 0.15 0.10 84 1014.1
20260505151533 16 133 0.0 3.2 0.00 0.15 0.10 84 1014.1
20260505150524 16 139 1.6 3.2 0.00 0.15 0.10 85 1014.1
20260505140526 15 65 0.0 1.6 0.00 0.15 0.10 91 1013.7
20260505124526 15 0.0 0.0 0.00 0.13 0.05 93 1013.2
20260505123532 15 0.0 0.0 0.00 0.13 0.05 93 1013.1
20260505122524 15 0.0 1.6 0.00 0.13 0.05 93 1012.8
20260505121532 14 215 0.0 3.2 0.00 0.13 0.05 93 1012.9
20260505120525 14 0.0 0.0 0.00 0.13 0.05 93 1012.7
20260505115553 14 26 1.6 3.2 0.00 0.13 0.05 94 1012.6
20260505114525 14 0.0 0.0 0.00 0.13 0.05 94 1012.7
20260505113532 14 41 1.6 3.2 0.00 0.13 0.05 93 1012.6
20260505112524 14 285 0.0 1.6 0.00 0.13 0.05 93 1013.1
20260505111533 14 90 0.0 3.2 0.00 0.13 0.05 93 1012.8
20260505110524 14 30 0.0 3.2 0.00 0.13 0.05 92 1013.1
20260505101532 14 13 1.6 6.4 0.00 0.13 0.05 91 1013.9
20260505100605 14 19 1.6 6.4 0.03 0.13 0.05 93 1014.0
20260505095532 14 24 1.6 4.8 0.03 0.13 0.05 93 1014.2
20260505094545 14 87 1.6 4.8 0.05 0.13 0.05 93 1014.0
20260505093553 14 75 3.2 8.0 0.05 0.13 0.05 92 1014.3
20260505092524 14 105 1.6 6.4 0.05 0.13 0.05 93 1014.8
20260505091532 14 117 3.2 11.3 0.05 0.13 0.05 93 1014.7
20260505090524 14 100 4.8 11.3 0.03 0.10 0.03 93 1014.9
20260505085552 14 84 4.8 11.3 0.03 0.10 0.03 93 1015.3
20260505084524 14 84 4.8 8.0 0.00 0.05 0.00 92 1015.5
20260505083532 14 99 3.2 6.4 0.00 0.05 0.00 92 1016.0
20260505082525 14 98 3.2 6.4 0.00 0.05 0.00 92 1016.2
20260505081532 14 97 3.2 8.0 0.00 0.05 0.00 92 1016.3
20260505080524 15 100 3.2 6.4 0.00 0.05 0.00 92 1016.5
20260505075532 15 90 0.0 3.2 0.00 0.05 0.00 92 1016.8
20260505074544 15 101 1.6 4.8 0.00 0.05 0.00 92 1016.9
20260505073532 15 90 1.6 4.8 0.00 0.05 0.00 92 1017.0
20260505072524 15 91 1.6 3.2 0.00 0.05 0.00 92 1016.7
20260505071552 15 78 1.6 3.2 0.00 0.05 0.00 92 1016.7
20260505070545 15 119 1.6 3.2 0.00 0.05 0.00 92 1016.7
20260505065533 15 93 1.6 3.2 0.00 0.05 0.05 92 1016.5
20260505064545 15 75 0.0 3.2 0.00 0.05 0.05 92 1016.5
20260505063532 15 62 1.6 3.2 0.00 0.05 0.05 91 1016.4
20260505062526 15 48 0.0 3.2 0.00 0.05 0.05 90 1016.5
20260505061532 15 25 4.8 8.0 0.00 0.05 0.05 89 1016.6
20260505060524 15 57 1.6 3.2 0.00 0.05 0.05 88 1016.6
20260505055532 15 37 3.2 4.8 0.00 0.05 0.05 86 1016.4
20260505054700 15 47 1.6 3.2 0.00 0.05 0.05 87 1016.1
20260505053708 15 73 1.6 4.8 0.00 0.05 0.05 87 1016.2
20260505052524 15 103 1.6 3.2 0.00 0.05 0.05 86 1016.5
20260505051532 15 103 1.6 4.8 0.00 0.05 0.05 86 1016.5
20260505050524 15 93 3.2 4.8 0.00 0.05 0.05 86 1016.5
20260505041532 15 131 0.0 3.2 0.00 0.05 0.05 80 1016.3
20260505040606 15 43 1.6 4.8 0.00 0.05 0.05 83 1016.2
20260505035532 15 59 3.2 6.4 0.00 0.05 0.05 82 1016.0
20260505034524 14 60 3.2 11.3 0.00 0.05 0.05 83 1015.7
20260505033532 14 98 4.8 11.3 0.00 0.05 0.05 83 1015.6
20260505032804 14 154 3.2 4.8 0.00 0.05 0.05 85 1015.6
20260505031532 13 35 6.4 11.3 0.00 0.05 0.05 85 1015.6
20260505030544 14 40 4.8 8.0 0.00 0.05 0.05 86 1016.2
20260505025532 15 41 6.4 11.3 0.00 0.05 0.05 82 1016.5
20260505024524 15 34 4.8 6.4 0.00 0.05 0.05 84 1016.6
20260505023552 15 49 3.2 8.0 0.00 0.05 0.05 81 1016.6
20260505022524 15 64 1.6 3.2 0.00 0.05 0.05 81 1016.5
20260505021532 15 66 1.6 4.8 0.00 0.05 0.05 78 1016.5
20260505020524 16 54 0.0 3.2 0.00 0.05 0.05 80 1016.5
20260505015552 16 30 6.4 11.3 0.03 0.05 0.05 79 1016.0
20260505014524 16 24 6.4 11.3 0.05 0.05 0.05 76 1016.1